Location: São Paulo
(23.5507°S, 46.6334°W)
Time: 08:37:52
(UTC-03:00)

Hubble Space Telescope - Pass Details

Date: 30 July 2021
Orbit: 535 x 539 km, 28.5° (Epoch: 24 September)

Event Time Altitude Azimuth Distance (km) Brightness Sun altitude
Exits shadow 04:35:04 30° 108° (ESE) 984 2.5 -29.1°
Drops below altitude 10° 04:37:14 10° 107° (ESE) 1,794 4.2 -28.6°
Sets 04:39:30 0° 107° (ESE) 2,688 5.3 -28.1°
